Weather History for Lima, OH

Change the Weather History Date:

Friday, November 30, 2012

  Actual Average (KFDY) Record (KFDY)
Temperature  
Mean Temperature 44 °F -  
Max Temperature 54 °F 41 °F 64 °F (1998)
Min Temperature 35 °F 29 °F 0 °F (1958)
Degree Days  
Heating Degree Days 20    
Moisture  
Dew Point 31 °F    
Average Humidity 60    
Maximum Humidity 72    
Minimum Humidity 43    
Precipitation  
Precipitation 0.00 in - - ()
Sea Level Pressure  
Sea Level Pressure 30.18 in    
Wind  
Wind Speed 8 mph (South)    
Max Wind Speed 14 mph    
Max Gust Speed -    
Visibility 10 miles    
Events      
Averages and records for this station are not official NWS values.
T = Trace of Precipitation, MM = Missing Value Source: NWS Daily Summary

Daily Weather History Graph

Daily Weather History Graph

Search for Another Location

Airport:

Trip Planner

Search our weather history database for the weather conditions in past years. The results will help you decide how hot, cold, wet, or windy it might be!

Date:

Astronomy

Nov. 30, 2012 Rise Set
Actual Time 7:40 AM EST 5:09 PM EST
Civil Twilight 7:09 AM EST 5:39 PM EST
Nautical Twilight 6:35 AM EST 6:13 PM EST
Astronomical Twilight 6:02 AM EST 6:46 PM EST
Moon 7:03 PM EST (11/30) 9:11 AM EST (11/30)
Length of Visible Light 10h 30m
Length of Day
9h 29m
Waning Gibbous, 96% of the Moon is Illuminated
Nov 30
Waning Gibbous
Dec 6
Last Quarter
Dec 13
New
Dec 20
First Quarter
Dec 28
Full

Hourly Weather History & Observations

Time (EST) Temp. Windchill Dew Point Humidity Pressure Visibility Wind Dir Wind Speed Gust Speed Precip Events Conditions
12:53 AM 39.0 °F 34.0 °F 28.0 °F 65% 30.22 in 10.0 mi South 6.9 mph - N/A   Overcast
1:53 AM 39.9 °F 33.4 °F 28.9 °F 65% 30.20 in 10.0 mi South 10.4 mph - N/A   Overcast
2:53 AM 39.9 °F 35.1 °F 28.0 °F 63% 30.20 in 10.0 mi South 6.9 mph - N/A   Mostly Cloudy
3:53 AM 37.0 °F 30.4 °F 28.0 °F 70% 30.20 in 10.0 mi South 9.2 mph - N/A   Clear
4:53 AM 39.0 °F 32.8 °F 28.0 °F 65% 30.20 in 10.0 mi South 9.2 mph - N/A   Clear
5:53 AM 37.9 °F 31.5 °F 27.0 °F 65% 30.20 in 10.0 mi South 9.2 mph - N/A   Clear
6:53 AM 35.1 °F 27.9 °F 27.0 °F 72% 30.20 in 10.0 mi SSE 9.2 mph - N/A   Clear
7:53 AM 35.1 °F 27.4 °F 27.0 °F 72% 30.20 in 10.0 mi South 10.4 mph - N/A   Clear
8:53 AM 39.0 °F 31.8 °F 28.9 °F 67% 30.21 in 10.0 mi South 11.5 mph - N/A   Clear
9:53 AM 43.0 °F 36.0 °F 30.0 °F 60% 30.19 in 10.0 mi South 13.8 mph - N/A   Clear
10:53 AM 48.9 °F - 30.9 °F 50% 30.19 in 10.0 mi South 11.5 mph - N/A   Partly Cloudy
11:53 AM 51.1 °F - 30.0 °F 44% 30.17 in 10.0 mi SW 11.5 mph - N/A   Clear
12:53 PM 51.1 °F - 30.0 °F 44% 30.15 in 10.0 mi SW 13.8 mph - N/A   Scattered Clouds
1:53 PM 54.0 °F - 32.0 °F 43% 30.13 in 10.0 mi SSW 10.4 mph - N/A   Scattered Clouds
2:53 PM 53.1 °F - 32.0 °F 45% 30.12 in 10.0 mi South 8.1 mph - N/A   Overcast
3:53 PM 54.0 °F - 34.0 °F 47% 30.12 in 10.0 mi South 8.1 mph - N/A   Scattered Clouds
4:53 PM 53.1 °F - 34.0 °F 48% 30.14 in 10.0 mi South 6.9 mph - N/A   Overcast
5:53 PM 48.0 °F - 35.1 °F 61% 30.15 in 10.0 mi South 4.6 mph - N/A   Mostly Cloudy
6:53 PM 46.9 °F - 36.0 °F 66% 30.18 in 10.0 mi Calm Calm - N/A   Overcast
7:53 PM 46.9 °F - 36.0 °F 66% 30.20 in 10.0 mi Calm Calm - N/A   Overcast
8:53 PM 46.0 °F 44.8 °F 36.0 °F 68% 30.20 in 10.0 mi SSE 3.5 mph - N/A   Overcast
9:53 PM 46.9 °F - 35.1 °F 63% 30.20 in 10.0 mi South 5.8 mph - N/A   Overcast
10:53 PM 46.0 °F 42.5 °F 36.0 °F 68% 30.19 in 10.0 mi South 6.9 mph - N/A   Scattered Clouds
11:53 PM 46.0 °F 42.5 °F 37.0 °F 71% 30.18 in 9.0 mi South 6.9 mph - N/A   Clear